Location: Unspecified
(0.0000°N, 0.0000°E)
Time: 17:57:49
(UTC+00:00)

Vanguard 2 - Pass Details

Date: 18 April 2026
Orbit: 553 x 2895 km, 32.9° (Epoch: 17 May)

Event Time Altitude Azimuth Distance (km) Brightness Sun altitude
Rises 18:34:15 0° 307° (NW) 3,919 12.5 -8.6°
Reaches altitude 10° 18:36:30 10° 308° (NW) 3,196 11.8 -9.1°
Maximum altitude 18:44:52 85° 36° (NE) 1,754 9.3 -11.2°
Enters shadow 18:58:05 13° 124° (SE) 4,890 11.0 -14.4°
